Total_Precipitation_Accumulation
0.02 0.06 0.09 0.11 0.11 0.08 0.05 0.03 0.05 0.07 0.11 0.12 0.17 0.09 0.04 0.02 0.01 0.01 0.00 0.01 0.01 0.01 0.01 0.02 0.02 0.02 0.03 0.03 0.04 0.05 0.06 0.08 0.08 0.08 0.09 0.09 0.09 0.09 0.08 0.09 0.10 0.13 0.16 0.16
0.01 0.04 0.06 0.08 0.11 0.07 0.04 0.03 0.03 0.04 0.10 0.13 0.13 0.08 0.06 0.05 0.03 0.03 0.03 0.04 0.05 0.06 0.06 0.06 0.06 0.05 0.05 0.06 0.06 0.07 0.09 0.09 0.09 0.12 0.11 0.11 0.11 0.11 0.11 0.12 0.15 0.19 0.22 0.23
0.02 0.05 0.05 0.09 0.08 0.07 0.07 0.06 0.05 0.07 0.11 0.12 0.13 0.13 0.16 0.16 0.16 0.16 0.14 0.12 0.09 0.08 0.06 0.05 0.04 0.04 0.04 0.04 0.06 0.08 0.10 0.11 0.14 0.17 0.18 0.17 0.16 0.15 0.15 0.17 0.21 0.25 0.29 0.32
0.04 0.07 0.10 0.09 0.08 0.06 0.08 0.09 0.09 0.12 0.15 0.18 0.22 0.26 0.32 0.34 0.27 0.17 0.11 0.09 0.07 0.06 0.05 0.05 0.05 0.07 0.07 0.09 0.11 0.14 0.16 0.17 0.22 0.26 0.27 0.27 0.27 0.24 0.26 0.29 0.30 0.32 0.34 0.37
0.06 0.09 0.10 0.11 0.13 0.13 0.12 0.14 0.16 0.22 0.26 0.30 0.30 0.24 0.21 0.16 0.11 0.08 0.07 0.07 0.08 0.09 0.10 0.09 0.09 0.12 0.14 0.15 0.19 0.23 0.25 0.27 0.32 0.39 0.45 0.44 0.41 0.41 0.42 0.42 0.39 0.38 0.38 0.43
0.11 0.14 0.16 0.17 0.23 0.21 0.21 0.33 0.28 0.26 0.23 0.20 0.21 0.31 0.27 0.16 0.11 0.09 0.08 0.07 0.08 0.08 0.08 0.11 0.13 0.13 0.14 0.18 0.23 0.31 0.35 0.34 0.37 0.46 0.56 0.58 0.55 0.55 0.57 0.57 0.53 0.49 0.46 0.49
0.17 0.19 0.16 0.21 0.19 0.17 0.29 0.37 0.28 0.29 0.29 0.26 0.32 0.35 0.30 0.18 0.12 0.10 0.10 0.08 0.08 0.07 0.07 0.08 0.11 0.14 0.18 0.22 0.26 0.29 0.35 0.38 0.40 0.47 0.57 0.57 0.61 0.65 0.66 0.66 0.66 0.64 0.59 0.58
0.26 0.34 0.30 0.26 0.23 0.28 0.37 0.29 0.25 0.23 0.21 0.19 0.18 0.14 0.13 0.12 0.10 0.10 0.10 0.10 0.09 0.09 0.10 0.12 0.14 0.17 0.21 0.24 0.24 0.27 0.29 0.31 0.34 0.42 0.49 0.50 0.60 0.64 0.68 0.69 0.70 0.71 0.72 0.69
0.30 0.36 0.28 0.25 0.25 0.25 0.24 0.22 0.18 0.17 0.13 0.14 0.16 0.14 0.11 0.10 0.11 0.10 0.09 0.08 0.08 0.09 0.11 0.14 0.18 0.23 0.29 0.31 0.32 0.33 0.32 0.32 0.35 0.42 0.56 0.68 0.71 0.67 0.71 0.75 0.73 0.72 0.76 0.78
0.27 0.32 0.31 0.28 0.25 0.19 0.17 0.14 0.09 0.10 0.14 0.13 0.11 0.11 0.11 0.12 0.10 0.08 0.07 0.05 0.06 0.08 0.09 0.11 0.13 0.17 0.23 0.28 0.33 0.38 0.39 0.39 0.40 0.45 0.57 0.81 0.93 0.87 0.80 0.79 0.77 0.77 0.75 0.77
0.27 0.30 0.27 0.28 0.22 0.16 0.12 0.09 0.09 0.09 0.10 0.10 0.07 0.07 0.07 0.07 0.04 0.04 0.04 0.05 0.06 0.08 0.10 0.11 0.12 0.16 0.21 0.28 0.36 0.40 0.39 0.38 0.38 0.44 0.57 0.79 0.95 0.94 0.79 0.76 0.74 0.74 0.73 0.73
0.21 0.22 0.22 0.25 0.19 0.14 0.13 0.13 0.13 0.11 0.09 0.08 0.06 0.06 0.07 0.06 0.05 0.05 0.05 0.06 0.08 0.10 0.13 0.15 0.18 0.24 0.28 0.35 0.43 0.49 0.48 0.44 0.44 0.47 0.56 0.76 0.97 1.03 0.83 0.65 0.63 0.61 0.56 0.54
0.13 0.17 0.21 0.20 0.16 0.16 0.18 0.18 0.16 0.13 0.11 0.08 0.07 0.07 0.06 0.06 0.05 0.06 0.07 0.09 0.13 0.16 0.18 0.21 0.24 0.24 0.25 0.31 0.40 0.46 0.47 0.44 0.42 0.43 0.47 0.59 0.84 1.09 1.12 0.86 0.65 0.55 0.43 0.34
0.14 0.16 0.20 0.21 0.22 0.21 0.19 0.18 0.17 0.15 0.12 0.08 0.06 0.05 0.04 0.05 0.05 0.07 0.11 0.16 0.23 0.26 0.27 0.28 0.27 0.25 0.26 0.33 0.38 0.41 0.41 0.38 0.36 0.36 0.38 0.47 0.69 0.97 1.17 1.15 0.98 0.73 0.45 0.28
0.14 0.17 0.21 0.19 0.19 0.18 0.17 0.15 0.13 0.13 0.10 0.06 0.04 0.04 0.04 0.06 0.09 0.14 0.19 0.29 0.39 0.39 0.36 0.33 0.31 0.28 0.30 0.36 0.38 0.36 0.37 0.33 0.30 0.31 0.32 0.37 0.56 0.83 1.05 1.13 1.08 0.96 0.68 0.37
0.15 0.17 0.16 0.13 0.14 0.13 0.13 0.11 0.09 0.08 0.06 0.05 0.05 0.05 0.06 0.08 0.12 0.16 0.24 0.39 0.56 0.57 0.47 0.41 0.36 0.34 0.34 0.37 0.36 0.32 0.31 0.25 0.20 0.22 0.25 0.30 0.42 0.66 0.92 1.07 1.03 0.98 0.83 0.48
0.18 0.15 0.13 0.13 0.13 0.13 0.13 0.12 0.10 0.08 0.08 0.08 0.08 0.08 0.10 0.14 0.19 0.25 0.36 0.46 0.52 0.51 0.46 0.45 0.39 0.35 0.35 0.36 0.35 0.30 0.27 0.22 0.15 0.15 0.24 0.30 0.37 0.55 0.81 0.99 0.96 0.88 0.76 0.46
0.13 0.12 0.11 0.11 0.12 0.13 0.14 0.15 0.14 0.13 0.12 0.12 0.12 0.11 0.14 0.22 0.33 0.47 0.58 0.62 0.56 0.44 0.39 0.40 0.36 0.32 0.30 0.28 0.26 0.25 0.23 0.23 0.21 0.22 0.28 0.32 0.36 0.54 0.76 0.91 0.88 0.83 0.74 0.51
0.09 0.09 0.09 0.09 0.09 0.09 0.08 0.09 0.08 0.08 0.09 0.12 0.13 0.11 0.13 0.19 0.33 0.51 0.62 0.74 0.79 0.65 0.45 0.33 0.29 0.25 0.24 0.19 0.20 0.20 0.20 0.22 0.22 0.24 0.29 0.28 0.39 0.57 0.72 0.79 0.78 0.74 0.64 0.52
0.07 0.07 0.07 0.07 0.07 0.06 0.06 0.06 0.05 0.05 0.08 0.11 0.11 0.08 0.10 0.16 0.32 0.52 0.65 0.76 0.83 0.75 0.55 0.37 0.25 0.20 0.16 0.12 0.13 0.17 0.20 0.24 0.26 0.28 0.30 0.38 0.48 0.61 0.67 0.66 0.65 0.63 0.59 0.59
0.06 0.05 0.05 0.04 0.03 0.02 0.01 0.01 0.01 0.03 0.07 0.09 0.08 0.07 0.10 0.16 0.28 0.49 0.79 0.98 0.86 0.70 0.54 0.41 0.28 0.18 0.13 0.12 0.11 0.14 0.18 0.22 0.28 0.34 0.38 0.44 0.53 0.62 0.64 0.62 0.57 0.54 0.55 0.58
0.05 0.04 0.03 0.02 0.01 0.01 0.01 0.01 0.01 0.03 0.06 0.06 0.06 0.07 0.12 0.19 0.30 0.42 0.61 0.91 0.97 0.86 0.62 0.42 0.30 0.19 0.14 0.12 0.12 0.14 0.17 0.19 0.25 0.30 0.34 0.38 0.48 0.57 0.56 0.51 0.47 0.47 0.50 0.57
0.06 0.04 0.04 0.02 0.02 0.01 0.01 0.01 0.01 0.02 0.03 0.05 0.05 0.07 0.12 0.20 0.33 0.58 0.71 0.70 0.79 0.88 0.66 0.45 0.36 0.26 0.17 0.13 0.16 0.17 0.18 0.22 0.29 0.32 0.30 0.34 0.37 0.43 0.46 0.44 0.45 0.47 0.52 0.53
0.04 0.04 0.03 0.02 0.01 0.01 0.01 0.01 0.01 0.01 0.02 0.02 0.03 0.04 0.09 0.19 0.27 0.42 0.61 0.69 0.72 0.78 0.61 0.45 0.35 0.26 0.20 0.18 0.22 0.26 0.32 0.39 0.40 0.35 0.30 0.31 0.34 0.39 0.44 0.44 0.41 0.45 0.49 0.51
0.04 0.03 0.02 0.01 0.01 0.02 0.02 0.01 0.02 0.03 0.03 0.03 0.04 0.05 0.08 0.15 0.29 0.44 0.56 0.64 0.76 0.81 0.69 0.54 0.41 0.35 0.30 0.31 0.35 0.44 0.51 0.45 0.39 0.34 0.31 0.31 0.35 0.40 0.42 0.45 0.48 0.48 0.48 0.49
0.03 0.02 0.02 0.02 0.02 0.02 0.02 0.03 0.04 0.04 0.05 0.06 0.07 0.09 0.12 0.19 0.27 0.38 0.49 0.55 0.63 0.73 0.68 0.52 0.36 0.32 0.33 0.38 0.43 0.47 0.47 0.42 0.37 0.35 0.34 0.36 0.39 0.43 0.42 0.46 0.49 0.48 0.48 0.49
0.03 0.03 0.04 0.04 0.04 0.04 0.04 0.06 0.08 0.08 0.11 0.15 0.18 0.21 0.24 0.27 0.31 0.37 0.43 0.48 0.51 0.52 0.49 0.38 0.28 0.28 0.28 0.29 0.33 0.37 0.38 0.39 0.38 0.38 0.39 0.41 0.43 0.44 0.42 0.39 0.39 0.39 0.39 0.39